Weather in Krasny Kholm

Russia / Kostroma Oblast     58°24′06″N   45°23′45″E
temp.,
°C
wind,
m/s
gust,
m/s
humid.,
%
clouds,
%
prec.,
mm/h
press.,
hPa
HPBL,
m
17 may, mon
mon1700:00+14sw26865 0.0 1013123
03:00+12sw26900 0.0 1014129
06:00+15wsw36800 0.0 1015258
09:00+20w35606 0.0 10161043
12:00+23w354898 0.0 10171607
15:00+23wnw344589 0.0 10171774
18:00+22nne126143 0.0 101770
21:00+15ene24835 0.0 101862
18 may, tue
tue1800:00+14e258949 0.0 101996
03:00+13e2688100 0.0 1019120
06:00+15e388499 0.3 1020247
09:00+21ese4659100 0.3 1020670
12:00+25ese455071 0.0 10191155
15:00+26ese454799 0.0 10191400
18:00+23ese386296 0.0 1018401
21:00+18ese3127876 0.0 1019296
19 may, wed
wed1900:00+16se4137492 0.0 1019361
03:00+14ese2108357 0.0 1019218
06:00+17se3107213 0.0 1019274
09:00+22se475221 0.0 1019661
12:00+26se574135 0.0 10181268
15:00+26se56385 0.0 10181408
18:00+23se38510 0.0 1017607
21:00+16ese312760 0.0 1018262
20 may, thu
thu2000:00+14se312830 0.0 1018263
03:00+13se211870 0.0 1018218
06:00+16se39730 0.0 1018267
09:00+22se48515 0.0 1017768
12:00+25sse69355 0.0 10161705
15:00+25sse59355 0.0 10151771
18:00+22se5104577 0.0 1015963
21:00+17se4136140 0.0 1015409
21 may, fri
fri2100:00+14se3137548 0.0 1015322
03:00+13se310780 0.0 1015244
06:00+16sse38745 0.0 1015274
09:00+21sse475998 0.0 1014965
12:00+22sse5854100 0.6 10131780
15:00+24s5946100 0.6 10112582
18:00+18s51176100 1.1 1011711
21:00+15s3891100 4.9 1010229